Weather History for KFET - February, 2014

Change the Weather History Date:

Wednesday, February 12, 2014

  Actual Average Record
Temperature  
Mean Temperature 22 °F -  
Max Temperature 26 °F 37 °F 70 °F (1990)
Min Temperature 19 °F 16 °F -14 °F (1988)
Degree Days  
Heating Degree Days 42    
Moisture  
Dew Point 20 °F    
Average Humidity 88    
Maximum Humidity 100    
Minimum Humidity 72    
Precipitation  
Precipitation 0.00 in - - ()
Sea Level Pressure  
Sea Level Pressure 30.01 in    
Wind  
Wind Speed 8 mph (South)    
Max Wind Speed 16 mph    
Max Gust Speed 23 mph    
Visibility 8 miles    
Events Snow    
Averages and records for this station are not official NWS values.
T = Trace of Precipitation, MM = Missing Value Source: NWS Daily Summary

Daily Weather History Graph

Daily Weather History Graph

Search for Another Location

Airport or City:

Trip Planner

Search our weather history database for the weather conditions in past years. The results will help you decide how hot, cold, wet, or windy it might be!

Date:

Astronomy

Feb. 12, 2014 Rise Set
Actual Time 7:24 AM CST 5:56 PM CST
Civil Twilight 6:56 AM CST 6:24 PM CST
Nautical Twilight 6:23 AM CST 6:57 PM CST
Astronomical Twilight 5:51 AM CST 7:29 PM CST
Moon 4:10 PM CST (2/12) 5:43 AM CST (2/12)
Length of Visible Light 11h 28m
Length of Day
10h 31m
Waxing Gibbous, 95% of the Moon is Illuminated
Feb 12
Waxing Gibbous
Feb 14
Full
Feb 22
Last Quarter
Mar 1
New
Mar 8
First Quarter

Hourly Weather History & Observations

Time (CST) Temp. Windchill Dew Point Humidity Pressure Visibility Wind Dir Wind Speed Gust Speed Precip Events Conditions
12:15 AM 19.4 °F 9.5 °F 12.0 °F 73% 30.05 in 10.0 mi South 8.1 mph - N/A   Clear
12:35 AM 19.8 °F 9.1 °F 12.2 °F 72% 30.04 in 10.0 mi South 9.2 mph - N/A   Clear
12:55 AM 20.1 °F 8.8 °F 12.6 °F 73% 30.03 in 10.0 mi South 10.4 mph - N/A   Clear
1:15 AM 20.3 °F 9.0 °F 13.1 °F 74% 30.03 in 10.0 mi South 10.4 mph - N/A   Clear
1:35 AM 20.3 °F 9.8 °F 13.1 °F 74% 30.02 in 10.0 mi South 9.2 mph - N/A   Clear
1:55 AM 20.7 °F 8.8 °F 13.6 °F 74% 30.01 in 10.0 mi South 11.5 mph - N/A   Clear
2:15 AM 20.8 °F 7.9 °F 14.0 °F 75% 30.00 in 10.0 mi South 13.8 mph - N/A   Clear
2:35 AM 21.2 °F 9.5 °F 14.7 °F 76% 30.01 in 10.0 mi South 11.5 mph - N/A   Clear
2:55 AM 21.6 °F 15.3 °F 15.3 °F 77% 30.01 in 10.0 mi South 4.6 mph - N/A   Clear
3:15 AM 21.2 °F 12.6 °F 15.4 °F 78% 30.00 in 10.0 mi South 6.9 mph - N/A   Clear
3:35 AM 21.2 °F 14.9 °F 15.8 °F 80% 30.01 in 10.0 mi South 4.6 mph - N/A   Clear
3:55 AM 21.2 °F 13.6 °F 16.0 °F 80% 30.00 in 10.0 mi South 5.8 mph - N/A   Scattered Clouds
4:15 AM 21.2 °F 14.9 °F 16.2 °F 81% 30.00 in 10.0 mi South 4.6 mph - N/A   Mostly Cloudy
4:35 AM 21.2 °F 14.9 °F 16.3 °F 82% 30.00 in 10.0 mi South 4.6 mph - N/A   Overcast
4:55 AM 21.4 °F 15.1 °F 16.7 °F 82% 30.00 in 10.0 mi South 4.6 mph - N/A   Overcast
5:15 AM 21.2 °F 16.4 °F 16.7 °F 83% 30.00 in 10.0 mi South 3.5 mph - N/A   Scattered Clouds
5:35 AM 20.1 °F 15.2 °F 16.5 °F 86% 29.99 in 10.0 mi South 3.5 mph - N/A   Scattered Clouds
5:55 AM 20.8 °F 16.0 °F 16.7 °F 84% 30.01 in 10.0 mi SSW 3.5 mph - N/A   Clear
6:15 AM 20.3 °F - 16.7 °F 86% 30.01 in 10.0 mi Calm Calm - N/A   Clear
6:35 AM 20.1 °F - 16.5 °F 86% 30.01 in 10.0 mi Calm Calm - N/A   Clear
6:55 AM 19.8 °F - 16.2 °F 86% 30.02 in 10.0 mi Calm Calm - N/A   Clear
7:15 AM 19.9 °F - 16.7 °F 87% 30.03 in 10.0 mi Calm Calm - N/A   Scattered Clouds
7:35 AM 20.8 °F 12.1 °F 18.3 °F 90% 30.04 in 7.0 mi West 6.9 mph - N/A   Scattered Clouds
7:55 AM 22.3 °F 13.9 °F 20.7 °F 93% 30.04 in 2.0 mi NW 6.9 mph - N/A Snow Light Snow
8:15 AM 23.5 °F 15.4 °F 23.0 °F 98% 30.05 in 1.0 mi NNW 6.9 mph - N/A Snow Light Snow
8:35 AM 25.0 °F 17.1 °F 25.0 °F 100% 30.06 in 0.8 mi NNW 6.9 mph - N/A Snow Light Snow
8:55 AM 26.4 °F 16.6 °F 26.2 °F 99% 30.07 in 0.8 mi NNW 10.4 mph 17.3 mph N/A Snow Light Snow
9:15 AM 26.6 °F 15.7 °F 26.1 °F 98% 30.08 in 2.0 mi NNW 12.7 mph - N/A Snow Light Snow
9:35 AM 26.6 °F 14.7 °F 25.5 °F 96% 30.09 in 3.0 mi NNW 15.0 mph 23.0 mph N/A Snow Light Snow
9:55 AM 26.6 °F 15.7 °F 25.3 °F 95% 30.09 in 3.0 mi NNW 12.7 mph 21.9 mph N/A Snow Light Snow
10:15 AM 26.2 °F 13.8 °F 24.1 °F 92% 30.11 in 7.0 mi NNW 16.1 mph 21.9 mph N/A   Overcast
10:35 AM 26.2 °F 14.7 °F 23.5 °F 90% 30.11 in 10.0 mi NNW 13.8 mph 23.0 mph N/A   Overcast
10:55 AM 25.9 °F 14.8 °F 22.8 °F 88% 30.11 in 10.0 mi NNW 12.7 mph 20.7 mph N/A   Overcast
11:15 AM 25.5 °F 12.9 °F 22.3 °F 88% 30.12 in 10.0 mi NNW 16.1 mph 21.9 mph N/A   Overcast
11:35 AM 25.2 °F 12.9 °F 21.9 °F 87% 30.12 in 10.0 mi North 15.0 mph 18.4 mph N/A   Overcast
11:55 AM 25.7 °F 14.6 °F 21.9 °F 86% 30.11 in 10.0 mi NNW 12.7 mph 19.6 mph N/A   Mostly Cloudy
12:15 PM 25.7 °F 15.7 °F 21.9 °F 86% 30.11 in 10.0 mi North 10.4 mph 16.1 mph N/A   Mostly Cloudy
12:35 PM 26.4 °F 15.0 °F 22.3 °F 84% 30.10 in 10.0 mi NNW 13.8 mph - N/A   Overcast
12:55 PM 26.1 °F 16.2 °F 22.1 °F 85% 30.09 in 10.0 mi North 10.4 mph 16.1 mph N/A   Mostly Cloudy
1:15 PM 25.7 °F 16.4 °F 21.9 °F 86% 30.08 in 10.0 mi North 9.2 mph 18.4 mph N/A   Overcast
1:35 PM 25.7 °F 15.7 °F 21.6 °F 84% 30.09 in 10.0 mi NNW 10.4 mph - N/A   Overcast
1:55 PM 25.3 °F 16.0 °F 21.4 °F 85% 30.06 in 10.0 mi NNW 9.2 mph 16.1 mph N/A   Mostly Cloudy
2:15 PM 25.3 °F 17.6 °F 21.7 °F 86% 30.06 in 10.0 mi NNW 6.9 mph - N/A   Overcast
2:35 PM 25.5 °F 18.7 °F 21.9 °F 86% 30.05 in 10.0 mi North 5.8 mph - N/A   Overcast
2:55 PM 25.3 °F 18.5 °F 21.9 °F 87% 30.04 in 10.0 mi NNW 5.8 mph - N/A   Overcast
3:15 PM 24.8 °F 20.5 °F 21.7 °F 88% 30.03 in 10.0 mi NNE 3.5 mph - N/A   Overcast
3:35 PM 24.8 °F 20.5 °F 21.7 °F 88% 30.02 in 10.0 mi NNW 3.5 mph - N/A   Overcast
3:55 PM 24.8 °F - 21.7 °F 88% 30.01 in 10.0 mi Calm Calm - N/A   Overcast
4:15 PM 24.8 °F 20.5 °F 21.9 °F 89% 30.00 in 10.0 mi NNE 3.5 mph - N/A   Overcast
4:35 PM 24.8 °F - 21.9 °F 89% 30.00 in 10.0 mi Calm Calm - N/A   Overcast
4:55 PM 24.8 °F - 22.1 °F 89% 30.00 in 10.0 mi Calm Calm - N/A   Overcast
5:15 PM 24.8 °F 19.1 °F 22.1 °F 89% 29.98 in 10.0 mi South 4.6 mph - N/A   Overcast
5:35 PM 24.6 °F 16.7 °F 22.3 °F 91% 29.97 in 7.0 mi South 6.9 mph - N/A   Overcast
5:55 PM 24.6 °F 16.7 °F 22.5 °F 91% 29.97 in 5.0 mi SSE 6.9 mph - N/A   Overcast
6:15 PM 24.3 °F 17.3 °F 22.5 °F 93% 29.98 in 7.0 mi South 5.8 mph - N/A   Overcast
6:35 PM 24.4 °F 20.1 °F 22.6 °F 93% 30.00 in 7.0 mi SSW 3.5 mph - N/A   Overcast
6:55 PM 23.9 °F 19.5 °F 22.1 °F 93% 29.99 in 7.0 mi South 3.5 mph - N/A   Overcast
7:15 PM 22.1 °F 14.7 °F 20.8 °F 95% 29.97 in 7.0 mi SE 5.8 mph - N/A   Scattered Clouds
7:35 PM 21.9 °F 13.4 °F 20.7 °F 95% 29.96 in 7.0 mi SE 6.9 mph - N/A   Clear
7:55 PM 21.9 °F 12.5 °F 21.4 °F 98% 29.94 in 7.0 mi SSE 8.1 mph - N/A   Clear
8:15 PM 22.5 °F 14.1 °F 21.6 °F 96% 29.94 in 7.0 mi SE 6.9 mph - N/A   Clear
8:35 PM 23.0 °F 14.7 °F 22.1 °F 96% 29.94 in 7.0 mi South 6.9 mph - N/A   Clear
8:55 PM 23.2 °F 15.0 °F 21.9 °F 95% 29.93 in 7.0 mi South 6.9 mph - N/A   Clear
9:15 PM 23.7 °F 14.7 °F 22.1 °F 94% 29.92 in 7.0 mi South 8.1 mph - N/A   Clear
9:35 PM 23.7 °F 14.0 °F 22.1 °F 94% 29.91 in 7.0 mi South 9.2 mph - N/A   Clear
9:55 PM 24.1 °F 13.1 °F 22.6 °F 94% 29.89 in 7.0 mi South 11.5 mph - N/A   Clear
10:15 PM 24.4 °F 14.2 °F 22.6 °F 93% 29.89 in 7.0 mi South 10.4 mph - N/A   Clear
10:35 PM 24.3 °F 13.3 °F 22.6 °F 94% 29.85 in 7.0 mi SSE 11.5 mph - N/A   Clear
10:55 PM 24.8 °F 13.4 °F 23.0 °F 93% 29.82 in 7.0 mi SSE 12.7 mph - N/A   Clear
11:15 PM 25.2 °F 13.9 °F 23.5 °F 94% 29.78 in 7.0 mi SE 12.7 mph - N/A   Scattered Clouds
11:35 PM 26.2 °F 20.7 °F 23.9 °F 91% 29.84 in 10.0 mi SSW 4.6 mph - N/A   Scattered Clouds
11:55 PM 26.1 °F 16.2 °F 23.9 °F 92% 29.81 in 7.0 mi South 10.4 mph - N/A   Scattered Clouds